User: anonymous   Login
Location: ?????????
(44.2517°N, 135.2292°E)
Time: 05:15:29
(UTC+00:00)
Language:

Meteor 1-21 - Orbit

View from above orbital plane
View from above orbital plane
View from above satellite
View from above satellite

Ground track
Ground track

The orbit is defined by the following mean orbital elements,

1 07714U          26102.95997780 +.00000000 +00000-0 +25574-4 0 00004
2 07714  81.1893 293.2113 0030266 175.7034 184.4402 14.08467641    00
Epoch (UTC): 12 April 2026 23:02:22
Eccentricity: 0.0030266
inclination: 81.1893°
perigee height: 843 km
apogee height: 887 km
right ascension of ascending node: 293.2113°
argument of perigee: 175.7034°
revolutions per day: 14.08467641
mean anomaly at epoch: 184.4402°

The dashed part of the orbit path shows where the satellite is in the earth's shadow,  

DLR